DW1850 Weather Reports


Display with metric or nautical units.
time (UTC)temp
F
wind
direction
speed
MPH
gust
MPH
rain 1hr
in
rain 24hr
in
rain mn
in
humidity
%
barometer
mb
20260831225949 96 101 0.0 9.0 0.00 0.00 0.00 44 1010.0
20260831222948 97 103 0.0 5.0 0.00 0.00 0.00 42 1010.3
20260831215947 98 103 0.0 10.0 0.00 0.00 0.00 40 1010.5
20260831212947 98 107 4.0 10.0 0.00 0.00 0.00 41 1010.8
20260831205946 98 153 0.0 10.0 0.00 0.00 0.00 40 1011.2
20260831202945 98 188 9.0 14.0 0.00 0.00 0.00 42 1012.0
20260831195944 96 120 1.0 16.0 0.00 0.00 0.00 45 1012.3
20260831192943 96 150 0.0 12.0 0.00 0.00 0.00 47 1012.7
20260831185943 95 158 4.0 10.0 0.00 0.00 0.00 48 1013.2
20260831182942 95 138 7.0 15.0 0.00 0.00 0.00 50 1013.4
20260831175941 94 130 9.0 15.0 0.00 0.00 0.00 51 1013.6
20260831172940 92 149 0.0 12.0 0.00 0.00 0.00 56 1013.8
20260831165940 90 173 0.0 8.0 0.00 0.00 0.00 63 1014.3
20260831162940 89 178 0.0 9.0 0.00 0.00 0.00 64 1014.5
20260831160008 87 175 4.0 10.0 0.00 0.00 0.00 70 1014.3
20260831153008 85 159 0.0 9.0 0.00 0.00 0.00 73 1014.0
20260831143006 81 182 2.0 10.0 0.00 0.00 0.00 84 1013.7
20260831140005 80 180 2.0 8.0 0.00 0.00 0.00 88 1013.4
20260831133004 79 176 0.0 1.0 0.00 0.00 0.00 92 1013.4
20260831130008 78 176 0.0 2.0 0.00 0.00 0.00 93 1013.0
20260831120002 78 176 1.0 8.0 0.00 0.00 0.00 91 1012.8
20260831113001 78 176 4.0 8.0 0.00 0.00 0.00 90 1013.1
20260831110000 78 176 1.0 8.0 0.00 0.00 0.00 90 1012.8
20260831103000 78 177 1.0 9.0 0.00 0.00 0.00 89 1012.9
20260831095959 78 178 2.0 12.0 0.00 0.00 0.00 89 1012.8
20260831092958 78 178 4.0 12.0 0.00 0.00 0.00 88 1012.8
20260831085957 79 175 4.0 9.0 0.00 0.00 0.00 88 1012.7
20260831082957 79 169 1.0 10.0 0.00 0.00 0.00 86 1012.8
20260831072955 80 166 0.0 10.0 0.00 0.00 0.00 79 1012.8
20260831065954 81 166 4.0 12.0 0.00 0.00 0.00 77 1012.9
20260831062954 82 157 8.0 12.0 0.00 0.00 0.00 76 1013.0
20260831055953 83 154 2.0 8.0 0.00 0.00 0.00 74 1012.8
20260831052952 84 153 0.0 9.0 0.00 0.00 0.00 71 1012.6
20260831042950 86 158 1.0 15.0 0.00 0.00 0.00 66 1012.1
20260831032949 87 128 9.0 15.0 0.00 0.00 0.00 62 1011.8
20260831025948 88 137 10.0 16.0 0.00 0.00 0.00 60 1011.3
20260831022947 90 128 0.0 17.0 0.00 0.00 0.00 58 1011.0
20260831015946 91 110 0.0 0.0 0.00 0.00 0.00 49 1010.3
20260831005945 93 110 0.0 1.0 0.00 0.00 0.00 46 1009.7
20260831002944 95 111 0.0 8.0 0.00 0.00 0.00 44 1009.6